FW6002 Weather Reports


time (UTC)temp
C
wind
direction
speed
KPH
gust
KPH
rain 1hr
cm
rain 24hr
cm
rain mn
cm
humidity
%
barometer
mb
20260507094556 11 304 0.0 3.2 0.00 0.13 0.00 88 1018.6
20260507094053 11 0 0.0 4.8 0.00 0.13 0.00 88 1018.4
20260507093556 11 0 0.0 4.8 0.00 0.13 0.00 88 1018.2
20260507093057 11 0 0.0 4.8 0.00 0.13 0.00 88 1018.1
20260507092554 11 0 0.0 3.2 0.00 0.13 0.00 88 1018.1
20260507092055 12 0 0.0 3.2 0.00 0.13 0.00 88 1018.2
20260507091556 12 0 0.0 3.2 0.00 0.13 0.00 88 1017.9
20260507091056 12 0 0.0 3.2 0.00 0.13 0.00 88 1018.0
20260507090555 12 0 0.0 0.0 0.00 0.13 0.00 88 1018.1
20260507090110 12 0 0.0 1.6 0.00 0.13 0.00 88 1017.9
20260507085556 12 0 0.0 1.6 0.00 0.13 0.00 88 1018.0
20260507085054 12 0 0.0 0.0 0.00 0.13 0.00 88 1017.9
20260507084555 12 0 0.0 0.0 0.00 0.13 0.00 88 1017.9
20260507084056 12 0 0.0 0.0 0.00 0.13 0.00 88 1017.9
20260507083556 12 0 0.0 0.0 0.00 0.13 0.00 88 1017.9
20260507083054 12 0 0.0 0.0 0.00 0.13 0.00 88 1017.9
20260507082558 12 0 0.0 1.6 0.00 0.13 0.00 88 1017.7
20260507082055 12 0 0.0 1.6 0.00 0.13 0.00 88 1017.6
20260507081557 12 0 0.0 1.6 0.00 0.13 0.00 88 1017.5
20260507081056 12 0 0.0 1.6 0.00 0.13 0.00 88 1017.4
20260507080556 12 0 0.0 3.2 0.00 0.13 0.00 88 1017.4
20260507075557 12 0 0.0 3.2 0.00 0.13 0.00 88 1017.0
20260507075056 12 19 0.0 3.2 0.00 0.13 0.00 89 1017.1
20260507074558 12 0 0.0 3.2 0.00 0.13 0.00 89 1017.2
20260507074055 12 0 0.0 1.6 0.00 0.13 0.00 89 1017.5
20260507073555 12 188 0.0 1.6 0.00 0.13 0.00 89 1017.5
20260507073053 12 35 0.0 1.6 0.00 0.13 0.00 89 1017.2
20260507072556 12 0 0.0 1.6 0.00 0.13 0.00 89 1017.4
20260507072055 13 0 0.0 1.6 0.00 0.13 0.00 89 1017.2
20260507071604 13 280 0.0 1.6 0.00 0.13 0.00 89 1017.3
20260507071056 13 0 0.0 1.6 0.00 0.13 0.00 89 1016.8
20260507070556 13 0 0.0 1.6 0.00 0.13 0.00 89 1017.1
20260507065556 13 0 0.0 0.0 0.00 0.13 0.00 89 1016.8
20260507065055 13 0 0.0 0.0 0.00 0.13 0.00 89 1016.8
20260507064618 13 0 0.0 1.6 0.00 0.13 0.00 89 1016.8
20260507064055 13 0 0.0 1.6 0.00 0.13 0.00 89 1016.8
20260507063556 13 0 0.0 1.6 0.00 0.13 0.00 89 1016.7
20260507063056 13 0 0.0 3.2 0.00 0.13 0.00 89 1016.4
20260507062553 13 0 0.0 3.2 0.00 0.13 0.00 89 1016.5
20260507062054 13 0 0.0 3.2 0.00 0.13 0.00 90 1016.3
20260507061605 13 0 0.0 3.2 0.00 0.13 0.00 89 1016.5
20260507061053 13 0 0.0 1.6 0.00 0.13 0.00 90 1016.5
20260507060556 13 298 0.0 1.6 0.00 0.13 0.00 90 1016.4
20260507060059 13 0 0.0 1.6 0.00 0.13 0.00 90 1016.4
20260507055556 13 0 0.0 1.6 0.00 0.13 0.00 90 1016.4
20260507055054 13 0 0.0 1.6 0.00 0.13 0.00 90 1016.4
20260507054610 13 0 0.0 4.8 0.00 0.13 0.00 90 1016.5
20260507054055 13 0 0.0 4.8 0.00 0.13 0.00 90 1016.4
20260507053556 13 300 0.0 4.8 0.00 0.13 0.00 90 1016.4
20260507053054 13 0 0.0 3.2 0.00 0.13 0.00 90 1016.5
20260507052555 13 0 0.0 1.6 0.00 0.13 0.00 90 1016.5
20260507052055 13 0 0.0 1.6 0.00 0.13 0.00 90 1016.6
20260507051555 13 0 0.0 1.6 0.00 0.13 0.00 90 1016.5
20260507051052 13 0 0.0 3.2 0.00 0.13 0.00 90 1016.5
20260507050553 13 0 0.0 3.2 0.00 0.13 0.00 90 1016.6
20260507050055 13 0 0.0 3.2 0.00 0.13 0.00 91 1016.3
20260507045556 13 0 0.0 1.6 0.00 0.13 0.13 91 1016.3
20260507045053 13 0 0.0 1.6 0.00 0.13 0.13 91 1016.4
20260507044555 13 0 0.0 1.6 0.00 0.13 0.13 91 1016.3
20260507044055 13 0 0.0 1.6 0.00 0.13 0.13 90 1016.2
20260507043556 13 0 0.0 1.6 0.00 0.13 0.13 90 1016.3
20260507043102 13 0 0.0 1.6 0.00 0.13 0.13 91 1016.3
20260507042556 13 0 0.0 1.6 0.00 0.13 0.13 91 1016.5
20260507042055 13 0 0.0 0.0 0.00 0.13 0.13 90 1016.5
20260507041605 13 0 0.0 1.6 0.00 0.13 0.13 91 1016.5
20260507041055 13 0 0.0 1.6 0.00 0.13 0.13 91 1016.5
20260507040555 13 0 0.0 1.6 0.00 0.13 0.13 91 1016.5
20260507040059 13 0 0.0 1.6 0.00 0.13 0.13 91 1016.6
20260507035555 13 0 0.0 1.6 0.00 0.13 0.13 91 1016.5
20260507035055 13 0 0.0 1.6 0.00 0.13 0.13 91 1016.5
20260507034557 13 0 0.0 1.6 0.00 0.13 0.13 91 1016.5
20260507034056 13 0 0.0 1.6 0.00 0.13 0.13 91 1016.6
20260507033557 13 0 0.0 1.6 0.00 0.13 0.13 91 1016.3
20260507033053 13 0 0.0 0.0 0.00 0.13 0.13 91 1016.4
20260507032554 14 0 0.0 0.0 0.00 0.13 0.13 91 1016.5
20260507032054 14 0 0.0 0.0 0.00 0.13 0.13 91 1016.4
20260507031558 14 0 0.0 0.0 0.00 0.13 0.13 90 1016.6
20260507031059 14 0 0.0 0.0 0.00 0.13 0.13 90 1016.4
20260507030555 14 0 0.0 0.0 0.00 0.13 0.13 90 1016.4
20260507025555 14 0 0.0 3.2 0.00 0.13 0.13 90 1016.3
20260507025055 14 0 0.0 3.2 0.00 0.13 0.13 89 1016.2
20260507024553 15 0 0.0 1.6 0.00 0.13 0.13 89 1016.2
20260507024055 15 0 0.0 1.6 0.00 0.13 0.13 89 1016.0
20260507023556 15 0 0.0 1.6 0.00 0.13 0.13 89 1016.0
20260507023111 15 0 0.0 1.6 0.00 0.13 0.13 89 1015.7
20260507022556 15 0 0.0 1.6 0.00 0.13 0.13 89 1015.9
20260507022055 15 0 0.0 1.6 0.00 0.13 0.13 88 1015.7
20260507021557 15 0 0.0 1.6 0.00 0.13 0.13 88 1015.6
20260507021055 15 0 0.0 1.6 0.00 0.13 0.13 88 1015.6
20260507020555 15 0 0.0 1.6 0.00 0.13 0.13 88 1015.4
20260507020054 15 0 0.0 1.6 0.00 0.13 0.13 88 1015.3
20260507015554 15 0 0.0 1.6 0.00 0.13 0.13 87 1015.2
20260507015055 15 0 0.0 3.2 0.00 0.13 0.13 87 1015.2
20260507014606 15 261 0.0 3.2 0.00 0.13 0.13 87 1015.0
20260507014056 15 0 0.0 3.2 0.00 0.13 0.13 87 1015.1
20260507013554 15 226 0.0 3.2 0.00 0.13 0.13 87 1014.8
20260507013112 15 0 0.0 1.6 0.00 0.13 0.13 87 1014.6
20260507012554 15 0 0.0 3.2 0.00 0.13 0.13 87 1014.6
20260507012055 15 0 0.0 3.2 0.00 0.13 0.13 86 1014.5
20260507011554 16 0 0.0 4.8 0.00 0.13 0.13 86 1014.4
20260507011055 16 211 0.0 4.8 0.00 0.13 0.13 86 1014.3
20260507010555 16 0 0.0 3.2 0.00 0.13 0.13 85 1014.2
20260507010056 16 0 0.0 3.2 0.00 0.13 0.13 85 1014.1
20260507005555 16 0 0.0 3.2 0.00 0.13 0.13 85 1014.2
20260507005055 16 209 0.0 3.2 0.00 0.13 0.13 84 1013.9
20260507004557 16 0 0.0 3.2 0.00 0.13 0.13 84 1014.0
20260507004053 16 0 0.0 3.2 0.00 0.13 0.13 83 1013.9
20260507003552 16 0 0.0 3.2 0.00 0.13 0.13 83 1013.9
20260507003056 16 0 0.0 3.2 0.00 0.13 0.13 83 1014.0
20260507002552 16 0 0.0 3.2 0.00 0.13 0.13 83 1014.2
20260507002052 16 0 0.0 3.2 0.00 0.13 0.13 83 1014.2
20260507001617 16 180 0.0 3.2 0.00 0.13 0.13 83 1014.0
20260507001055 16 0 0.0 4.8 0.00 0.13 0.13 83 1014.0
20260507000552 16 194 0.0 4.8 0.00 0.13 0.13 83 1014.0
20260507000059 16 185 0.0 3.2 0.00 0.13 0.13 84 1014.0
20260506235552 16 0 0.0 3.2 0.00 0.13 0.13 84 1013.9
20260506235056 16 0 0.0 3.2 0.00 0.13 0.13 83 1013.8
20260506234554 16 0 0.0 1.6 0.00 0.13 0.13 83 1013.9
20260506234057 16 0 0.0 3.2 0.00 0.13 0.13 85 1014.0
20260506233553 16 0 0.0 3.2 0.00 0.13 0.13 85 1013.8
20260506233102 16 192 0.0 1.6 0.00 0.13 0.13 84 1013.7
20260506232555 16 0 0.0 1.6 0.00 0.13 0.13 84 1013.7
20260506232052 16 0 0.0 3.2 0.00 0.13 0.13 85 1013.6
20260506231555 16 0 0.0 3.2 0.00 0.13 0.13 85 1013.5
20260506231053 16 0 0.0 3.2 0.00 0.13 0.13 85 1013.4
20260506230552 16 259 0.0 3.2 0.00 0.13 0.13 85 1013.5
20260506230056 16 0 0.0 3.2 0.05 0.13 0.13 85 1013.3
20260506225557 16 251 0.0 3.2 0.05 0.13 0.13 85 1013.3
20260506225055 16 0 0.0 3.2 0.05 0.13 0.13 86 1013.3
20260506224554 15 0 0.0 3.2 0.05 0.13 0.13 86 1013.3
20260506224051 16 0 0.0 3.2 0.05 0.13 0.13 88 1013.5
20260506223555 15 0 0.0 3.2 0.05 0.13 0.13 87 1013.4
20260506223111 15 0 0.0 3.2 0.05 0.13 0.13 88 1013.4
20260506222555 16 0 0.0 3.2 0.05 0.13 0.13 89 1013.0
20260506222059 15 0 0.0 3.2 0.05 0.13 0.13 89 1013.3
20260506221602 15 0 0.0 3.2 0.05 0.13 0.13 88 1013.1
20260506221056 15 0 0.0 3.2 0.05 0.13 0.13 86 1013.3
20260506220553 16 46 0.0 3.2 0.05 0.13 0.13 83 1013.7
20260506220056 16 0 0.0 1.6 0.00 0.08 0.08 81 1013.6
20260506215552 16 0 0.0 1.6 0.00 0.08 0.08 80 1013.4
20260506215052 16 0 0.0 3.2 0.00 0.08 0.08 78 1013.5
20260506214604 16 0 0.0 3.2 0.00 0.08 0.08 77 1013.6
20260506214056 17 36 0.0 4.8 0.00 0.08 0.08 77 1013.5
20260506213555 17 0 0.0 4.8 0.00 0.08 0.08 77 1013.6
20260506213054 17 37 0.0 3.2 0.00 0.08 0.08 78 1013.4
20260506212555 17 0 0.0 3.2 0.00 0.08 0.08 76 1013.7
20260506212058 17 360 0.0 3.2 0.00 0.08 0.08 78 1013.5
20260506211556 17 288 0.0 4.8 0.00 0.08 0.08 79 1013.1
20260506211055 17 17 0.0 4.8 0.00 0.08 0.08 77 1013.5
20260506210555 17 0 0.0 3.2 0.00 0.08 0.08 77 1013.5
20260506205555 17 0 0.0 3.2 0.00 0.08 0.08 78 1013.3
20260506205054 17 19 0.0 3.2 0.00 0.08 0.08 77 1013.3
20260506204555 17 229 0.0 4.8 0.00 0.08 0.08 78 1013.6
20260506204053 17 218 0.0 4.8 0.00 0.08 0.08 77 1013.6
20260506203553 17 0 0.0 3.2 0.00 0.08 0.08 77 1013.7
20260506203100 17 0 0.0 3.2 0.00 0.08 0.08 78 1013.8
20260506202553 16 0 0.0 3.2 0.00 0.08 0.08 78 1013.9
20260506202054 16 0 0.0 4.8 0.00 0.08 0.08 79 1013.9
20260506201556 16 0 0.0 4.8 0.00 0.08 0.08 79 1014.1
20260506201054 16 11 0.0 3.2 0.00 0.08 0.08 78 1014.1
20260506200555 16 0 0.0 3.2 0.00 0.08 0.08 78 1013.9
20260506200152 16 0 0.0 4.8 0.00 0.08 0.08 78 1014.0
20260506195554 16 0 0.0 4.8 0.00 0.08 0.08 79 1014.2
20260506195054 16 0 0.0 4.8 0.00 0.08 0.08 80 1014.3
20260506194604 16 0 0.0 4.8 0.00 0.08 0.08 80 1014.3
20260506194054 15 0 0.0 4.8 0.00 0.08 0.08 82 1014.4
20260506193555 15 0 0.0 3.2 0.00 0.08 0.08 81 1014.7
20260506193052 15 0 0.0 3.2 0.00 0.08 0.08 80 1014.8
20260506192556 15 0 0.0 4.8 0.00 0.08 0.08 82 1014.7
20260506192056 15 76 0.0 4.8 0.00 0.08 0.08 84 1014.7
20260506191556 15 34 0.0 4.8 0.00 0.08 0.08 82 1014.9
20260506191055 15 0 0.0 3.2 0.00 0.08 0.08 83 1014.8
20260506190555 15 0 0.0 1.6 0.00 0.08 0.08 84 1014.8
20260506190055 14 0 0.0 1.6 0.00 0.08 0.08 84 1015.0
20260506185554 13 23 0.0 1.6 0.00 0.08 0.08 85 1015.1
20260506185055 13 0 0.0 3.2 0.00 0.08 0.08 84 1015.2
20260506184555 13 0 0.0 3.2 0.00 0.08 0.08 85 1015.1
20260506184054 13 0 0.0 1.6 0.00 0.08 0.08 85 1015.1
20260506183554 13 0 0.0 1.6 0.00 0.08 0.08 85 1015.5
20260506183055 13 0 0.0 3.2 0.00 0.08 0.08 85 1015.3
20260506182553 13 0 0.0 3.2 0.00 0.08 0.08 85 1015.2
20260506182058 13 0 0.0 4.8 0.00 0.08 0.08 86 1015.4
20260506181554 13 0 0.0 6.4 0.00 0.08 0.08 86 1015.4
20260506181054 13 0 0.0 6.4 0.00 0.08 0.08 86 1015.5
20260506180557 13 22 0.0 6.4 0.00 0.08 0.08 85 1015.1
20260506180105 13 0 0.0 6.4 0.00 0.08 0.08 86 1015.1
20260506175554 13 0 1.6 6.4 0.00 0.08 0.08 85 1015.0
20260506175057 13 0 0.0 3.2 0.00 0.08 0.08 85 1014.7
20260506174556 13 24 0.0 8.0 0.00 0.08 0.08 86 1014.2
20260506174055 13 0 0.0 8.0 0.00 0.08 0.08 86 1014.2
20260506173552 13 360 1.6 8.0 0.00 0.08 0.08 86 1014.0
20260506173111 13 21 0.0 3.2 0.00 0.08 0.08 88 1013.7
20260506172558 12 19 0.0 4.8 0.00 0.08 0.08 87 1014.0
20260506172055 12 317 0.0 4.8 0.00 0.08 0.08 87 1013.8
20260506171602 13 0 0.0 3.2 0.00 0.08 0.08 87 1013.8
20260506171055 13 0 0.0 3.2 0.00 0.08 0.08 87 1013.8
20260506170554 13 0 0.0 3.2 0.00 0.08 0.08 88 1014.2
20260506170052 13 44 0.0 3.2 0.00 0.08 0.08 87 1014.6
20260506165554 13 0 0.0 3.2 0.00 0.08 0.08 88 1014.8
20260506165057 12 0 0.0 3.2 0.00 0.08 0.08 88 1014.6
20260506164554 12 0 0.0 4.8 0.00 0.08 0.08 88 1014.3
20260506164056 12 0 0.0 4.8 0.00 0.08 0.08 89 1014.1
20260506163556 12 0 0.0 4.8 0.00 0.08 0.08 88 1014.6
20260506163106 12 0 0.0 4.8 0.00 0.08 0.08 88 1014.4
20260506162558 12 38 0.0 4.8 0.00 0.08 0.08 88 1014.7
20260506162056 12 0 0.0 4.8 0.00 0.08 0.08 89 1014.5
20260506161559 12 0 0.0 4.8 0.00 0.08 0.08 89 1014.9
20260506161055 12 344 0.0 4.8 0.00 0.08 0.08 89 1014.5
20260506160556 12 80 0.0 4.8 0.00 0.08 0.08 89 1014.3
20260506160107 12 0 0.0 4.8 0.00 0.08 0.08 89 1014.1
20260506155555 12 0 0.0 4.8 0.00 0.08 0.08 90 1014.6
20260506155055 12 0 0.0 4.8 0.00 0.08 0.08 90 1014.4
20260506154555 12 206 0.0 4.8 0.00 0.08 0.08 90 1014.0
20260506154055 12 0 0.0 6.4 0.00 0.08 0.08 90 1013.9
20260506153555 12 274 1.6 6.4 0.03 0.08 0.08 90 1013.6
20260506153055 12 333 0.0 4.8 0.03 0.08 0.08 90 1013.9
20260506152556 12 80 0.0 4.8 0.03 0.08 0.08 91 1013.8
20260506152054 12 0 0.0 4.8 0.05 0.08 0.08 90 1013.5
20260506151554 12 313 0.0 6.4 0.08 0.08 0.08 91 1013.4
20260506151056 12 0 0.0 6.4 0.08 0.08 0.08 91 1013.2
20260506150556 11 31 0.0 4.8 0.08 0.08 0.08 90 1014.3
20260506150101 11 0 0.0 4.8 0.08 0.08 0.08 90 1014.3
20260506145600 11 0 0.0 4.8 0.08 0.08 0.08 90 1015.0
20260506145055 11 40 0.0 4.8 0.08 0.08 0.08 89 1015.4
20260506144555 11 0 0.0 3.2 0.08 0.08 0.08 89 1015.5
20260506144055 11 0 0.0 4.8 0.08 0.08 0.08 89 1015.3
20260506143556 11 167 0.0 4.8 0.05 0.05 0.05 88 1014.9
20260506143057 11 0 0.0 4.8 0.05 0.05 0.05 88 1014.4
20260506142554 11 333 0.0 4.8 0.05 0.05 0.05 87 1014.4
20260506142054 11 0 0.0 4.8 0.03 0.03 0.03 86 1014.9
20260506141556 12 0 0.0 3.2 0.00 0.00 0.00 85 1016.1
20260506141054 12 78 0.0 3.2 0.00 0.00 0.00 84 1016.3
20260506140559 12 0 0.0 3.2 0.00 0.00 0.00 84 1016.7
20260506140054 12 17 0.0 6.4 0.00 0.00 0.00 84 1014.9
20260506135557 12 0 0.0 8.0 0.00 0.00 0.00 84 1013.8
20260506135107 12 0 0.0 8.0 0.00 0.00 0.00 83 1012.9
20260506134616 12 227 1.6 4.8 0.00 0.00 0.00 83 1013.4
20260506134100 12 53 0.0 4.8 0.00 0.00 0.00 83 1014.0
20260506133556 12 87 0.0 4.8 0.00 0.00 0.00 82 1014.3
20260506133056 12 0 0.0 4.8 0.00 0.00 0.00 82 1014.2
20260506132555 12 0 0.0 4.8 0.00 0.00 0.00 82 1014.0
20260506132055 12 88 0.0 4.8 0.00 0.00 0.00 82 1014.0
20260506131609 12 0 0.0 4.8 0.00 0.00 0.00 82 1013.9
20260506131054 12 0 0.0 3.2 0.00 0.00 0.00 82 1013.6
20260506130555 12 77 0.0 3.2 0.00 0.00 0.00 81 1013.6
20260506130057 12 36 0.0 3.2 0.00 0.00 0.00 81 1013.5
20260506125554 13 302 0.0 4.8 0.00 0.00 0.00 81 1013.1
20260506125055 13 0 0.0 4.8 0.00 0.00 0.00 82 1013.1
20260506124555 13 0 0.0 4.8 0.00 0.00 0.00 81 1013.0
20260506124057 13 54 0.0 4.8 0.00 0.00 0.00 81 1012.7
20260506123556 13 23 0.0 3.2 0.00 0.00 0.00 81 1012.5
20260506123055 13 0 0.0 4.8 0.00 0.00 0.00 81 1012.8
20260506122556 13 144 0.0 4.8 0.00 0.00 0.00 81 1012.7
20260506122055 13 57 0.0 3.2 0.00 0.00 0.00 81 1012.5
20260506121606 13 0 0.0 4.8 0.00 0.00 0.00 81 1012.5
20260506121056 13 58 0.0 4.8 0.00 0.00 0.00 81 1012.3
20260506120556 13 27 0.0 4.8 0.00 0.00 0.00 80 1012.4
20260506120059 14 143 0.0 4.8 0.00 0.00 0.00 80 1012.1
20260506115554 14 0 0.0 3.2 0.00 0.00 0.00 80 1012.0
20260506115054 14 0 0.0 3.2 0.00 0.00 0.00 80 1012.3
20260506114556 14 0 0.0 3.2 0.00 0.00 0.00 80 1012.2
20260506114054 14 0 0.0 3.2 0.00 0.00 0.00 80 1012.0
20260506113554 14 303 0.0 4.8 0.00 0.00 0.00 80 1012.2
20260506113054 14 0 0.0 4.8 0.00 0.00 0.00 79 1012.1
20260506112555 14 0 0.0 3.2 0.00 0.00 0.00 79 1012.1
20260506112054 14 187 0.0 6.4 0.00 0.00 0.00 79 1011.9
20260506111611 14 5 0.0 6.4 0.00 0.00 0.00 79 1011.8
20260506111057 14 0 0.0 4.8 0.00 0.00 0.00 79 1011.9
20260506110556 14 360 0.0 3.2 0.00 0.00 0.00 80 1011.7
20260506110057 14 0 0.0 6.4 0.00 0.00 0.00 80 1011.6
20260506105556 15 0 0.0 6.4 0.00 0.00 0.00 80 1011.4
20260506105056 15 21 0.0 4.8 0.00 0.00 0.00 80 1011.2
20260506104554 15 40 0.0 6.4 0.00 0.00 0.00 80 1011.4
20260506104055 15 331 0.0 6.4 0.00 0.00 0.00 80 1011.3
20260506103557 15 0 0.0 4.8 0.00 0.00 0.00 81 1011.2
20260506103104 15 0 0.0 4.8 0.00 0.00 0.00 81 1010.9
20260506102557 15 0 0.0 4.8 0.00 0.00 0.00 81 1010.7
20260506102057 15 13 0.0 3.2 0.00 0.00 0.00 81 1010.8
20260506101558 15 0 0.0 3.2 0.00 0.00 0.00 81 1010.6
20260506101057 15 0 0.0 1.6 0.00 0.00 0.00 81 1010.7
20260506100556 15 0 0.0 1.6 0.00 0.00 0.00 81 1010.7
20260506100105 15 0 0.0 3.2 0.00 0.00 0.00 81 1010.5
20260506095556 15 0 0.0 3.2 0.00 0.00 0.00 81 1010.4
20260506095056 15 0 0.0 3.2 0.00 0.00 0.00 81 1010.4